LROD Weather Reports


time (UTC)temp
C
wind
direction
speed
KPH
gust
KPH
rain 1hr
cm
rain 24hr
cm
rain mn
cm
humidity
%
barometer
mb
20260507230329 15 300 4.8 0.0 0.00 0.00 0.00 94 1016.0
20260507224829 15 120 1.6 0.0 0.00 0.00 0.00 94 1015.0
20260507223448 15 120 1.6 0.0 0.00 0.00 0.00 94 1015.0
20260507221829 15 120 1.6 0.0 0.00 0.00 0.00 94 1015.0
20260507220329 15 120 1.6 0.0 0.00 0.00 0.00 94 1015.0
20260507214829 15 0 0.0 0.0 0.00 0.00 0.00 94 1015.0
20260507213331 15 0 0.0 0.0 0.00 0.00 0.00 94 1015.0
20260507211829 15 0 0.0 0.0 0.00 0.00 0.00 94 1015.0
20260507210330 15 0 0.0 0.0 0.00 0.00 0.00 94 1015.0
20260507204829 15 0 0.0 0.0 0.00 0.00 0.00 94 1015.0
20260507203330 15 0 0.0 0.0 0.00 0.00 0.00 94 1015.0
20260507201829 15 0 0.0 0.0 0.00 0.00 0.00 94 1015.0
20260507200330 15 0 0.0 0.0 0.00 0.00 0.00 94 1015.0
20260507194835 16 180 1.6 0.0 0.00 0.00 0.00 88 1015.0
20260507193329 16 180 1.6 0.0 0.00 0.00 0.00 88 1015.0
20260507191829 16 160 9.7 0.0 0.00 0.00 0.00 88 1015.0
20260507190330 16 160 9.7 0.0 0.00 0.00 0.00 88 1015.0
20260507184831 16 150 8.0 0.0 0.00 0.00 0.00 88 1014.0
20260507183329 16 150 8.0 0.0 0.00 0.00 0.00 88 1014.0
20260507181829 16 150 4.8 0.0 0.00 0.00 0.00 88 1014.0
20260507180329 16 150 4.8 0.0 0.00 0.00 0.00 88 1014.0
20260507174829 16 150 4.8 0.0 0.00 0.00 0.00 88 1014.0
20260507173330 16 150 4.8 0.0 0.00 0.00 0.00 88 1014.0
20260507171830 17 170 9.7 0.0 0.00 0.00 0.00 83 1014.0
20260507170329 17 180 9.7 0.0 0.00 0.00 0.00 83 1014.0
20260507164830 17 170 11.3 0.0 0.00 0.00 0.00 83 1014.0
20260507163330 17 170 11.3 0.0 0.00 0.00 0.00 83 1014.0
20260507161829 17 170 12.9 0.0 0.00 0.00 0.00 78 1014.0
20260507160329 17 170 12.9 0.0 0.00 0.00 0.00 78 1014.0
20260507154829 17 190 12.9 0.0 0.00 0.00 0.00 73 1014.0
20260507153329 17 190 12.9 0.0 0.00 0.00 0.00 73 1014.0
20260507151829 17 210 12.9 0.0 0.00 0.00 0.00 73 1014.0
20260507150329 17 210 12.9 0.0 0.00 0.00 0.00 73 1014.0
20260507144829 17 210 12.9 0.0 0.00 0.00 0.00 78 1015.0
20260507143331 17 210 12.9 0.0 0.00 0.00 0.00 78 1015.0
20260507141829 17 210 12.9 0.0 0.00 0.00 0.00 83 1015.0
20260507140329 17 210 12.9 0.0 0.00 0.00 0.00 83 1015.0
20260507134830 17 200 14.5 0.0 0.00 0.00 0.00 83 1015.0
20260507133329 17 200 14.5 0.0 0.00 0.00 0.00 83 1015.0
20260507131826 17 190 11.3 0.0 0.00 0.00 0.00 83 1015.0
20260507130329 17 190 11.3 0.0 0.00 0.00 0.00 83 1015.0
20260507124826 17 180 11.3 0.0 0.00 0.00 0.00 83 1015.0
20260507123407 17 180 11.3 0.0 0.00 0.00 0.00 83 1015.0
20260507121829 17 190 16.1 0.0 0.00 0.00 0.00 88 1015.0
20260507120329 17 190 16.1 0.0 0.00 0.00 0.00 88 1015.0
20260507114829 17 200 17.7 0.0 0.00 0.00 0.00 88 1015.0
20260507113347 17 210 20.9 0.0 0.00 0.00 0.00 83 1015.0
20260507111829 17 210 20.9 0.0 0.00 0.00 0.00 83 1015.0
20260507110329 17 210 20.9 0.0 0.00 0.00 0.00 83 1015.0
20260507104829 17 220 20.9 0.0 0.00 0.00 0.00 78 1015.0
20260507103329 17 220 20.9 0.0 0.00 0.00 0.00 78 1015.0
20260507101829 17 190 17.7 0.0 0.00 0.00 0.00 64 1015.0
20260507100330 17 190 17.7 0.0 0.00 0.00 0.00 64 1015.0
20260507094829 17 180 14.5 0.0 0.00 0.00 0.00 64 1015.0
20260507093330 17 180 14.5 0.0 0.00 0.00 0.00 64 1015.0
20260507091830 17 200 17.7 0.0 0.00 0.00 0.00 64 1014.0
20260507090329 17 200 17.7 0.0 0.00 0.00 0.00 64 1014.0
20260507084829 18 200 22.5 0.0 0.00 0.00 0.00 56 1014.0
20260507083330 18 200 22.5 0.0 0.00 0.00 0.00 56 1014.0
20260507081829 18 200 17.7 0.0 0.00 0.00 0.00 56 1014.0
20260507080330 18 200 17.7 0.0 0.00 0.00 0.00 56 1014.0
20260507074830 18 210 12.9 0.0 0.00 0.00 0.00 52 1014.0
20260507073329 18 210 12.9 0.0 0.00 0.00 0.00 52 1014.0
20260507071829 18 230 8.0 0.0 0.00 0.00 0.00 60 1014.0
20260507070329 18 230 8.0 0.0 0.00 0.00 0.00 60 1014.0
20260507064829 17 1.6 0.0 0.00 0.00 0.00 60 1014.0
20260507063329 17 1.6 0.0 0.00 0.00 0.00 60 1014.0
20260507061839 16 100 8.0 0.0 0.00 0.00 0.00 63 1013.0
20260507060329 16 100 8.0 0.0 0.00 0.00 0.00 63 1013.0
20260507054829 16 110 9.7 0.0 0.00 0.00 0.00 63 1013.0
20260507053337 16 110 9.7 0.0 0.00 0.00 0.00 63 1013.0
20260507051830 15 100 9.7 0.0 0.00 0.00 0.00 63 1013.0
20260507050329 15 100 9.7 0.0 0.00 0.00 0.00 63 1013.0
20260507044826 13 150 17.7 0.0 0.00 0.00 0.00 67 1012.0
20260507043329 13 150 17.7 0.0 0.00 0.00 0.00 67 1012.0
20260507041829 15 100 11.3 0.0 0.00 0.00 0.00 63 1012.0
20260507040329 15 100 11.3 0.0 0.00 0.00 0.00 63 1012.0
20260507034826 13 90 11.3 0.0 0.00 0.00 0.00 67 1012.0
20260507033328 13 90 11.3 0.0 0.00 0.00 0.00 67 1012.0
20260507031829 15 110 8.0 0.0 0.00 0.00 0.00 63 1012.0
20260507030329 15 110 8.0 0.0 0.00 0.00 0.00 63 1012.0
20260507024829 13 90 11.3 0.0 0.00 0.00 0.00 67 1012.0
20260507023329 13 90 11.3 0.0 0.00 0.00 0.00 67 1012.0
20260507021829 13 130 9.7 0.0 0.00 0.00 0.00 67 1012.0
20260507020329 13 140 9.7 0.0 0.00 0.00 0.00 67 1012.0
20260507014829 15 3.2 0.0 0.00 0.00 0.00 63 1012.0
20260507013329 15 3.2 0.0 0.00 0.00 0.00 63 1012.0
20260507011829 15 210 11.3 0.0 0.00 0.00 0.00 63 1012.0
20260507010329 15 210 11.3 0.0 0.00 0.00 0.00 63 1012.0
20260507004829 15 100 16.1 0.0 0.00 0.00 0.00 68 1011.0
20260507003329 15 100 16.1 0.0 0.00 0.00 0.00 68 1011.0
20260507001829 15 100 14.5 0.0 0.00 0.00 0.00 68 1011.0
20260507000329 15 100 14.5 0.0 0.00 0.00 0.00 68 1011.0
20260506234829 15 100 14.5 0.0 0.00 0.00 0.00 68 1011.0
20260506233329 15 100 14.5 0.0 0.00 0.00 0.00 68 1011.0
20260506231830 15 100 12.9 0.0 0.00 0.00 0.00 68 1011.0